DW0026 Weather Reports


Display with metric or nautical units.
time (UTC)temp
F
wind
direction
speed
MPH
gust
MPH
rain 1hr
in
rain 24hr
in
rain mn
in
humidity
%
barometer
mb
20180424101335 38 33 0.0 0.0 0.00 0.00 0.00 63 1018.6
20180424095830 38 33 0.0 0.0 0.00 0.00 0.00 63 1018.5
20180424094327 39 33 0.0 0.0 0.00 0.00 0.00 60 1018.5
20180424092826 39 33 0.0 0.0 0.00 0.00 0.00 60 1018.6
20180424091324 40 33 0.0 0.0 0.00 0.00 0.00 58 1018.8
20180424085823 40 33 0.0 0.0 0.00 0.00 0.00 58 1018.8
20180424084320 41 33 0.0 0.0 0.00 0.00 0.00 55 1018.9
20180424082817 41 33 0.0 0.0 0.00 0.00 0.00 57 1018.8
20180424081313 42 33 0.0 0.0 0.00 0.00 0.00 54 1018.8
20180424075816 43 33 0.0 0.0 0.00 0.00 0.00 52 1018.7
20180424074309 43 33 0.0 0.0 0.00 0.00 0.00 51 1018.7
20180424072809 45 33 0.0 0.0 0.00 0.00 0.00 56 1018.8
20180424071307 44 33 0.0 0.0 0.00 0.00 0.00 48 1018.4
20180424065802 45 33 0.0 0.0 0.00 0.00 0.00 47 1018.3
20180424064301 46 33 0.0 0.0 0.00 0.00 0.00 48 1018.2
20180424062801 46 33 0.0 0.0 0.00 0.00 0.00 46 1018.3
20180424061300 47 33 0.0 0.0 0.00 0.00 0.00 45 1018.1
20180424055759 49 33 0.0 0.0 0.00 0.00 0.00 41 1017.9
20180424054302 50 33 0.0 0.0 0.00 0.00 0.00 41 1017.7
20180424052802 51 33 0.0 0.0 0.00 0.00 0.00 38 1017.7
20180424051302 52 33 0.0 0.0 0.00 0.00 0.00 37 1017.4
20180424045757 53 33 0.0 0.0 0.00 0.00 0.00 39 1017.4
20180424044257 54 33 0.0 3.0 0.00 0.00 0.00 32 1017.1
20180424042755 55 33 0.0 0.0 0.00 0.00 0.00 31 1016.9
20180424041255 55 33 1.0 9.0 0.00 0.00 0.00 32 1016.6
20180424035756 56 33 1.0 8.0 0.00 0.00 0.00 31 1016.4
20180424034256 57 33 0.0 0.0 0.00 0.00 0.00 31 1016.1
20180424032754 57 33 1.0 4.0 0.00 0.00 0.00 30 1015.8
20180424031255 59 33 0.0 0.0 0.00 0.00 0.00 29 1015.7
20180424025756 61 33 0.0 0.0 0.00 0.00 0.00 28 1015.5
20180424024253 63 33 1.0 5.0 0.00 0.00 0.00 25 1015.2
20180424022754 65 33 1.0 8.0 0.00 0.00 0.00 24 1015.0
20180424021256 66 33 1.0 10.0 0.00 0.00 0.00 23 1015.1
20180424015751 67 32 4.0 8.0 0.00 0.00 0.00 20 1015.0
20180424014250 68 32 3.0 12.0 0.00 0.00 0.00 21 1015.1
20180424012753 68 35 5.0 12.0 0.00 0.00 0.00 21 1015.0
20180424011253 70 27 7.0 13.0 0.00 0.00 0.00 21 1015.0
20180424005749 69 28 4.0 12.0 0.00 0.00 0.00 21 1015.0
20180424004249 70 30 4.0 14.0 0.00 0.00 0.00 21 1015.2
20180424002751 71 33 3.0 15.0 0.00 0.00 0.00 20 1015.2
20180424001247 72 28 3.0 14.0 0.00 0.00 0.00 22 1015.2
20180423235747 72 38 4.0 11.0 0.00 0.00 0.00 21 1015.3
20180423234250 72 44 3.0 11.0 0.00 0.00 0.00 23 1015.2
20180423232744 70 40 6.0 13.0 0.00 0.00 0.00 24 1015.4
20180423231244 70 52 2.0 9.0 0.00 0.00 0.00 24 1015.5
20180423225746 71 65 5.0 13.0 0.00 0.00 0.00 22 1015.7
20180423224244 70 148 1.0 6.0 0.00 0.00 0.00 22 1016.0
20180423222744 70 150 0.0 8.0 0.00 0.00 0.00 20 1016.3
20180423221241 69 149 1.0 11.0 0.00 0.00 0.00 20 1016.5
20180423215737 68 153 1.0 6.0 0.00 0.00 0.00 21 1016.6
20180423214233 67 153 0.0 6.0 0.00 0.00 0.00 22 1016.7
20180423212732 67 153 2.0 10.0 0.00 0.00 0.00 24 1017.0
20180423211234 67 155 2.0 10.0 0.00 0.00 0.00 27 1017.1
20180423205727 66 154 1.0 8.0 0.00 0.00 0.00 23 1017.2
20180423204227 66 154 4.0 10.0 0.00 0.00 0.00 25 1017.2
20180423202721 65 153 2.0 9.0 0.00 0.00 0.00 24 1017.5
20180423201220 64 161 1.0 11.0 0.00 0.00 0.00 26 1017.5
20180423195723 64 162 4.0 11.0 0.00 0.00 0.00 25 1017.4
20180423194216 64 158 3.0 12.0 0.00 0.00 0.00 26 1017.5
20180423192715 63 158 4.0 11.0 0.00 0.00 0.00 27 1017.9
20180423191212 63 155 3.0 9.0 0.00 0.00 0.00 24 1018.0
20180423185709 62 152 1.0 11.0 0.00 0.00 0.00 26 1018.0
20180423184206 62 147 0.0 10.0 0.00 0.00 0.00 28 1018.2
20180423182704 62 155 3.0 12.0 0.00 0.00 0.00 26 1018.3
20180423181202 61 151 2.0 9.0 0.00 0.00 0.00 26 1018.4
20180423175701 61 152 0.0 8.0 0.00 0.00 0.00 25 1018.4
20180423174154 60 148 0.0 3.0 0.00 0.00 0.00 27 1018.4
20180423172650 59 148 2.0 9.0 0.00 0.00 0.00 26 1018.6
20180423171147 60 28 0.0 12.0 0.00 0.00 0.00 29 1018.4
20180423165643 58 28 1.0 6.0 0.00 0.00 0.00 31 1018.5
20180423164141 56 28 0.0 3.0 0.00 0.00 0.00 34 1018.6
20180423162633 55 28 0.0 5.0 0.00 0.00 0.00 36 1018.6
20180423161131 54 28 0.0 3.0 0.00 0.00 0.00 37 1018.5
20180423155627 53 28 0.0 0.0 0.00 0.00 0.00 42 1018.8
20180423154126 52 28 0.0 0.0 0.00 0.00 0.00 42 1018.7
20180423152619 49 28 0.0 0.0 0.00 0.00 0.00 50 1018.8
20180423151119 47 28 0.0 0.0 0.00 0.00 0.00 53 1018.7
20180423145619 45 28 0.0 0.0 0.00 0.00 0.00 58 1018.6
20180423144118 43 28 0.0 0.0 0.00 0.00 0.00 59 1018.7
20180423142611 40 28 0.0 0.0 0.00 0.00 0.00 67 1018.8
20180423141109 38 28 0.0 0.0 0.00 0.00 0.00 69 1018.4
20180423135607 35 28 0.0 0.0 0.00 0.00 0.00 72 1018.3
20180423134104 35 28 0.0 0.0 0.00 0.00 0.00 72 1018.1
20180423132600 35 28 0.0 0.0 0.00 0.00 0.00 71 1017.8
20180423131059 35 28 0.0 0.0 0.00 0.00 0.00 70 1017.5
20180423125553 36 28 0.0 0.0 0.00 0.00 0.00 69 1017.3
20180423124049 36 28 0.0 0.0 0.00 0.00 0.00 69 1017.1
20180423122549 36 28 0.0 0.0 0.00 0.00 0.00 69 1016.9
20180423121046 36 28 0.0 0.0 0.00 0.00 0.00 68 1016.9
20180423115545 37 28 0.0 0.0 0.00 0.00 0.00 68 1016.7
20180423114042 37 28 0.0 0.0 0.00 0.00 0.00 66 1016.5
20180423112541 38 28 0.0 0.0 0.00 0.00 0.00 65 1016.6
20180423111039 38 28 0.0 0.0 0.00 0.00 0.00 64 1016.3
20180423105535 39 28 0.0 0.0 0.00 0.00 0.00 62 1016.3
20180423104032 40 28 0.0 0.0 0.00 0.00 0.00 63 1016.2